STARLINK-33926, 64147

Orbit data source: Space-Track

STARLINK-33926, 64147 is a payload satellite owned by SpaceX/Seattle (US) in SSO that was launched on Tue, 27 May 2025 UTC via an FALCON 9 launch vehicle from the Air Force Western Test Range (AFWTR). Payload-class satellites include a variety of spacecraft equipped with specific instruments for various scientific and technological missions. These include communications satellites like Starlink; space stations such as the ISS; scientific satellites like the Hubble; Earth observation satellites from companies like Planet Labs, Umbra, and HawkEye 360; GPS; miniature CubeSats for education and research; and military/defense satellites.

Loading next visibility...
Identifier
64147, 2025-112B
Orbit
SSO
Country
Flag of USUS
Related business
Manufacturer
SpaceX/Seattle
Mission
Operational Commercial Communications
Bus & Motor
STARLINK V2MO, Unknown motor
Mass
575 kg wet, ~530 kg dry
Launch date (UTC)
2025-05-27 (1 year ago)
Launch vehicle
FALCON 9
Launch site
Air Force Western Test Range (AFWTR)
Object type
Payload
Rocket body
Debris
Shape & HBR
Box + 1 Pan, 17.7 m
Radar Cross Section
41.120 m², Large (>1 m²)

Expand to show TLE details & history
Last TLE update: 8 hours ago

TLE from 8 hours ago
0 STARLINK-33926
1 64147U 25112B   26238.13202330  .00008401  00000-0  26225-3 0  9991
2 64147  97.2825 285.6115 0001206  92.5685 267.5696 15.33446255 68866
Epoch: 2026-08-26T03:10Z
TLE epoch observation values (Epoch: 2026-08-26T03:10:06.813Z)
Latitude
0.00002°
Longitude
-96.3063°
Altitude
468.687 km
Speed
7.632 km/s
True Right ascension
19h 02m 26s
True Declination
0° 00' 00"
Sunlit
Object was in full shadow at epoch
Visualization orbit readout
Latitude
Unknown
Longitude
Unknown
Altitude
Unknown
Speed
Unknown
Apparent Right ascension
Unknown
Apparent Declination
Unknown
Sunlit
N/A
Visualization observer readout
Local Sidereal Time
02:58:10
Azimuth
Unknown
Elevation
Unknown
Doppler factor
Unknown
Orbital elements
Apogee altitude
463.307 km
Perigee altitude
461.657 km
Semi-major axis
6,840.619 km
Eccentricity
0.00012
Inclination
97.2825°
RAAN
285.6115°
Arg. of periapsis
92.5685°
True anomaly
267.55579°
Mean anomaly
267.5696°
Eccentric anomaly
267.5627°
Mean motion
3.83619 °/min
Orbital period
93.84 mins
BSTAR
0.00026225
Loading maneuver chart data...
Computing Atmospheric mass density...
Loading historical data...
Loading historical data...
Loading historical data...
Loading historical data...
Loading historical data...
Loading historical data...
Loading historical data...

Documentation

Showing up to 5 results
|